EZY13PC EGKK-EGPH

Flight info

Callsign EZY13PC
Flight time 1h 0m
Altitude 36000
Route LAM L10 BPK UN601 RIBEL DCT INPIP
Aircraft A320/M-SDE3FGHIRWY/LB1

Departure

Time 2026-05-05 15:15
Airport London Gatwick Airport (EGKK)

Arrival

Time 2026-05-05 16:15
Airport Edinburgh Airport (EGPH)
Time Latitude Longitude Altitude Speed Heading
2026-05-05 14:45 51.15894 -0.17199 205 ft 0 kts 335°
2026-05-05 15:01 51.15890 -0.17196 210 ft 3 kts 334°
2026-05-05 15:01 51.15871 -0.17179 209 ft 3 kts 325°
2026-05-05 15:01 51.15853 -0.17158 215 ft 3 kts 313°
2026-05-05 15:02 51.15840 -0.17130 216 ft 3 kts 291°
2026-05-05 15:02 51.15836 -0.17099 214 ft 3 kts 241°
2026-05-05 15:02 51.15843 -0.17086 211 ft 0 kts 198°
2026-05-05 15:06 51.15834 -0.17091 214 ft 5 kts 201°
2026-05-05 15:06 51.15817 -0.17126 214 ft 5 kts 248°
2026-05-05 15:06 51.15807 -0.17186 207 ft 6 kts 258°
2026-05-05 15:06 51.15795 -0.17273 205 ft 9 kts 257°
2026-05-05 15:07 51.15780 -0.17386 205 ft 12 kts 258°
2026-05-05 15:07 51.15757 -0.17552 208 ft 16 kts 257°
2026-05-05 15:07 51.15734 -0.17714 214 ft 14 kts 257°
2026-05-05 15:07 51.15713 -0.17860 205 ft 13 kts 257°
2026-05-05 15:08 51.15695 -0.17996 205 ft 14 kts 258°
2026-05-05 15:08 51.15667 -0.18202 209 ft 22 kts 258°
2026-05-05 15:08 51.15636 -0.18423 205 ft 20 kts 257°
2026-05-05 15:08 51.15607 -0.18632 207 ft 18 kts 257°
2026-05-05 15:09 51.15575 -0.18814 214 ft 16 kts 230°
2026-05-05 15:09 51.15473 -0.18806 205 ft 17 kts 168°
2026-05-05 15:09 51.15338 -0.18758 205 ft 21 kts 168°
2026-05-05 15:09 51.15193 -0.18707 215 ft 20 kts 167°
2026-05-05 15:10 51.15121 -0.18739 209 ft 6 kts 271°
2026-05-05 15:10 51.15113 -0.18868 214 ft 18 kts 257°
2026-05-05 15:10 51.15084 -0.19080 216 ft 19 kts 258°
2026-05-05 15:10 51.15057 -0.19276 216 ft 18 kts 257°
2026-05-05 15:11 51.15025 -0.19507 209 ft 24 kts 257°
2026-05-05 15:11 51.14989 -0.19753 205 ft 22 kts 256°
2026-05-05 15:11 51.14959 -0.19983 205 ft 20 kts 257°
2026-05-05 15:11 51.14927 -0.20221 214 ft 25 kts 257°
2026-05-05 15:12 51.14891 -0.20483 207 ft 25 kts 257°
2026-05-05 15:12 51.14855 -0.20740 208 ft 23 kts 258°
2026-05-05 15:12 51.14822 -0.20976 208 ft 21 kts 257°
2026-05-05 15:12 51.14782 -0.21183 211 ft 18 kts 239°
2026-05-05 15:13 51.14760 -0.21353 205 ft 14 kts 255°
2026-05-05 15:13 51.14686 -0.21392 210 ft 13 kts 155°
2026-05-05 15:13 51.14590 -0.21320 211 ft 17 kts 165°
2026-05-05 15:13 51.14520 -0.21189 209 ft 17 kts 91°
2026-05-05 15:14 51.14543 -0.21003 210 ft 17 kts 78°
2026-05-05 15:14 51.14568 -0.20808 208 ft 21 kts 78°
2026-05-05 15:14 51.14641 -0.20291 218 ft 82 kts 77°
2026-05-05 15:14 51.14808 -0.19085 209 ft 137 kts 78°
2026-05-05 15:15 51.15037 -0.17393 429 ft 164 kts 78°
2026-05-05 15:15 51.15275 -0.15623 1145 ft 168 kts 77°
2026-05-05 15:15 51.15520 -0.13767 1864 ft 176 kts 76°
2026-05-05 15:15 51.15798 -0.11754 2245 ft 198 kts 76°
2026-05-05 15:16 51.16118 -0.09466 2644 ft 223 kts 76°
2026-05-05 15:16 51.16560 -0.06968 3186 ft 244 kts 62°
2026-05-05 15:16 51.17531 -0.04753 4016 ft 250 kts 51°
2026-05-05 15:16 51.18243 -0.03293 4596 ft 254 kts 51°
2026-05-05 15:17 51.19334 -0.01045 5505 ft 256 kts 51°
2026-05-05 15:17 51.20430 0.01224 6471 ft 259 kts 51°
2026-05-05 15:17 51.21544 0.03535 7265 ft 267 kts 51°
2026-05-05 15:17 51.22691 0.05916 8082 ft 274 kts 51°
2026-05-05 15:18 51.23862 0.08345 8923 ft 279 kts 51°
2026-05-05 15:18 51.24920 0.10976 9742 ft 286 kts 67°
2026-05-05 15:18 51.25288 0.13007 10233 ft 290 kts 78°
2026-05-05 15:18 51.25667 0.16187 11046 ft 293 kts 79°
2026-05-05 15:19 51.26039 0.19392 11869 ft 295 kts 79°
2026-05-05 15:19 51.26414 0.22624 12695 ft 297 kts 79°
2026-05-05 15:19 51.26793 0.25875 13659 ft 299 kts 79°
2026-05-05 15:19 51.27214 0.29138 14398 ft 301 kts 72°
2026-05-05 15:20 51.28182 0.32104 15054 ft 305 kts 50°
2026-05-05 15:20 51.29806 0.34298 15697 ft 310 kts 28°
2026-05-05 15:20 51.31863 0.35354 16329 ft 315 kts
2026-05-05 15:20 51.34041 0.35057 16979 ft 319 kts 343°
2026-05-05 15:21 51.36128 0.33781 17639 ft 322 kts 338°
2026-05-05 15:21 51.38206 0.32424 18219 ft 325 kts 338°
2026-05-05 15:21 51.40307 0.31044 18810 ft 328 kts 338°
2026-05-05 15:21 51.42436 0.29653 19340 ft 331 kts 338°
2026-05-05 15:22 51.44582 0.28255 19914 ft 335 kts 338°
2026-05-05 15:22 51.46747 0.26846 20470 ft 338 kts 338°
2026-05-05 15:22 51.48937 0.25418 21021 ft 341 kts 338°
2026-05-05 15:22 51.51140 0.23978 21572 ft 344 kts 337°
2026-05-05 15:23 51.53366 0.22526 22122 ft 347 kts 337°
2026-05-05 15:23 51.55614 0.21061 22678 ft 350 kts 337°
2026-05-05 15:23 51.57880 0.19583 23233 ft 353 kts 337°
2026-05-05 15:23 51.59625 0.18440 23640 ft 355 kts 337°
2026-05-05 15:24 51.61827 0.16944 24058 ft 357 kts 332°
2026-05-05 15:24 51.63939 0.14818 24488 ft 359 kts 320°
2026-05-05 15:24 51.65758 0.12027 24703 ft 367 kts 308°
2026-05-05 15:24 51.67248 0.08622 24848 ft 378 kts 301°
2026-05-05 15:25 51.68668 0.05055 24960 ft 390 kts 301°
2026-05-05 15:25 51.70157 0.01332 25146 ft 401 kts 301°
2026-05-05 15:25 51.71686 -0.02487 25314 ft 410 kts 301°
2026-05-05 15:25 51.73263 -0.06351 25626 ft 415 kts 304°
2026-05-05 15:26 51.75158 -0.09897 25999 ft 420 kts 314°
2026-05-05 15:26 51.77423 -0.12910 26352 ft 425 kts 324°
2026-05-05 15:26 51.79965 -0.15399 26714 ft 429 kts 328°
2026-05-05 15:26 51.82550 -0.17843 27064 ft 432 kts 327°
2026-05-05 15:27 51.85152 -0.20320 27378 ft 435 kts 327°
2026-05-05 15:27 51.87702 -0.22762 27726 ft 438 kts 327°
2026-05-05 15:27 51.90308 -0.25261 28067 ft 440 kts 327°
2026-05-05 15:27 51.92954 -0.27800 28412 ft 443 kts 327°
2026-05-05 15:28 51.95617 -0.30355 28748 ft 446 kts 327°
2026-05-05 15:28 51.98293 -0.32920 29074 ft 449 kts 326°
2026-05-05 15:28 52.00984 -0.35504 29398 ft 451 kts 326°
2026-05-05 15:28 52.03700 -0.38118 29715 ft 454 kts 326°
2026-05-05 15:29 52.06421 -0.40745 30013 ft 456 kts 326°
2026-05-05 15:29 52.09151 -0.43388 30272 ft 459 kts 326°
2026-05-05 15:29 52.11903 -0.46050 30542 ft 460 kts 326°
2026-05-05 15:29 52.14663 -0.48719 30815 ft 462 kts 326°
2026-05-05 15:30 52.17391 -0.51362 31088 ft 464 kts 326°
2026-05-05 15:30 52.20163 -0.54051 31439 ft 463 kts 326°
2026-05-05 15:30 52.22928 -0.56739 31845 ft 461 kts 326°
2026-05-05 15:30 52.25679 -0.59415 32234 ft 460 kts 326°
2026-05-05 15:31 52.28421 -0.62089 32633 ft 458 kts 326°
2026-05-05 15:31 52.31149 -0.64756 33030 ft 456 kts 326°
2026-05-05 15:31 52.33873 -0.67419 33441 ft 455 kts 327°
2026-05-05 15:31 52.36580 -0.70067 33846 ft 453 kts 327°
2026-05-05 15:32 52.39280 -0.72710 34199 ft 452 kts 327°
2026-05-05 15:32 52.41976 -0.75355 34517 ft 451 kts 327°
2026-05-05 15:32 52.44658 -0.77994 34813 ft 450 kts 327°
2026-05-05 15:32 52.47341 -0.80641 35111 ft 450 kts 327°
2026-05-05 15:33 52.50019 -0.83287 35377 ft 449 kts 327°
2026-05-05 15:33 52.52695 -0.85930 35643 ft 449 kts 327°
2026-05-05 15:33 52.55372 -0.88574 35892 ft 449 kts 327°
2026-05-05 15:34 52.60709 -0.93869 35987 ft 446 kts 327°
2026-05-05 15:34 52.66012 -0.99155 36003 ft 445 kts 327°
2026-05-05 15:35 52.71309 -1.04426 35995 ft 445 kts 327°
2026-05-05 15:35 52.76564 -1.09676 35994 ft 444 kts 327°
2026-05-05 15:36 52.81891 -1.15008 36002 ft 444 kts 327°
2026-05-05 15:36 52.87177 -1.20322 36005 ft 444 kts 327°
2026-05-05 15:37 52.92449 -1.25650 36011 ft 444 kts 327°
2026-05-05 15:37 52.97713 -1.30984 36002 ft 443 kts 327°
2026-05-05 15:38 53.02980 -1.36330 36008 ft 443 kts 327°
2026-05-05 15:38 53.08235 -1.41670 36006 ft 443 kts 327°
2026-05-05 15:39 53.13485 -1.47022 36004 ft 442 kts 327°
2026-05-05 15:39 53.18727 -1.52381 36000 ft 442 kts 327°
2026-05-05 15:40 53.23965 -1.57762 36006 ft 442 kts 327°
2026-05-05 15:40 53.29166 -1.63122 36007 ft 442 kts 327°
2026-05-05 15:41 53.34388 -1.68512 36014 ft 441 kts 327°
2026-05-05 15:41 53.39606 -1.73900 36025 ft 441 kts 327°
2026-05-05 15:42 53.43973 -1.78434 36024 ft 440 kts 327°
2026-05-05 15:42 53.50027 -1.84741 36028 ft 440 kts 327°
2026-05-05 15:43 53.55226 -1.90165 36021 ft 440 kts 327°
2026-05-05 15:43 53.60422 -1.95605 36025 ft 440 kts 326°
2026-05-05 15:44 53.65610 -2.01067 36031 ft 440 kts 326°
2026-05-05 15:44 53.70799 -2.06536 36039 ft 440 kts 326°
2026-05-05 15:45 53.76145 -2.11540 36041 ft 442 kts 336°
2026-05-05 15:45 53.81852 -2.15407 36043 ft 442 kts 336°
2026-05-05 15:46 53.87553 -2.19295 36040 ft 441 kts 336°
2026-05-05 15:46 53.93242 -2.23194 36044 ft 441 kts 336°
2026-05-05 15:47 53.98935 -2.27123 36041 ft 441 kts 335°
2026-05-05 15:47 54.04621 -2.31043 36039 ft 441 kts 335°
2026-05-05 15:48 54.10314 -2.34965 36041 ft 441 kts 335°
2026-05-05 15:48 54.16004 -2.38894 36040 ft 441 kts 335°
2026-05-05 15:49 54.21683 -2.42844 36037 ft 441 kts 335°
2026-05-05 15:49 54.27362 -2.46818 36036 ft 441 kts 335°
2026-05-05 15:50 54.33042 -2.50804 35818 ft 441 kts 335°
2026-05-05 15:50 54.35882 -2.52795 35574 ft 441 kts 335°
2026-05-05 15:50 54.38721 -2.54787 35329 ft 441 kts 334°
2026-05-05 15:50 54.41565 -2.56785 35084 ft 441 kts 334°
2026-05-05 15:51 54.44372 -2.58764 34849 ft 442 kts 334°
2026-05-05 15:51 54.47213 -2.60767 34574 ft 442 kts 334°
2026-05-05 15:51 54.50080 -2.62793 33659 ft 448 kts 334°
2026-05-05 15:51 54.52955 -2.64826 33015 ft 445 kts 334°
2026-05-05 15:52 54.55808 -2.66837 32458 ft 440 kts 334°
2026-05-05 15:52 54.58626 -2.68825 31876 ft 436 kts 334°
2026-05-05 15:52 54.61424 -2.70807 31307 ft 433 kts 333°
2026-05-05 15:52 54.64195 -2.72775 30739 ft 430 kts 333°
2026-05-05 15:53 54.66953 -2.74738 30184 ft 427 kts 333°
2026-05-05 15:53 54.69657 -2.76668 29575 ft 424 kts 333°
2026-05-05 15:53 54.72361 -2.78600 29041 ft 419 kts 333°
2026-05-05 15:53 54.75043 -2.80522 28499 ft 414 kts 333°
2026-05-05 15:54 54.77683 -2.82418 27973 ft 410 kts 333°
2026-05-05 15:54 54.80305 -2.84304 27454 ft 405 kts 333°
2026-05-05 15:54 54.82894 -2.86168 26950 ft 401 kts 334°
2026-05-05 15:54 54.85456 -2.88014 26462 ft 396 kts 334°
2026-05-05 15:55 54.87978 -2.89830 25971 ft 392 kts 334°
2026-05-05 15:55 54.90496 -2.91645 25422 ft 390 kts 334°
2026-05-05 15:55 54.92990 -2.93447 24875 ft 388 kts 334°
2026-05-05 15:55 54.95471 -2.95241 24338 ft 386 kts 334°
2026-05-05 15:56 54.97943 -2.97034 23801 ft 384 kts 334°
2026-05-05 15:56 55.00406 -2.98825 23209 ft 382 kts 334°
2026-05-05 15:56 55.02845 -3.00599 22678 ft 379 kts 334°
2026-05-05 15:56 55.05266 -3.02365 22150 ft 375 kts 334°
2026-05-05 15:57 55.07694 -3.04138 21183 ft 383 kts 334°
2026-05-05 15:57 55.10167 -3.05938 20485 ft 382 kts 334°
2026-05-05 15:57 55.12593 -3.07698 19660 ft 373 kts 334°
2026-05-05 15:57 55.14970 -3.09428 18796 ft 368 kts 334°
2026-05-05 15:58 55.17299 -3.11128 17927 ft 363 kts 334°
2026-05-05 15:58 55.19565 -3.12785 17428 ft 349 kts 334°
2026-05-05 15:58 55.21795 -3.14420 16993 ft 346 kts 334°
2026-05-05 15:58 55.24009 -3.16052 16556 ft 343 kts 334°
2026-05-05 15:59 55.26192 -3.17666 16131 ft 341 kts 334°
2026-05-05 15:59 55.28374 -3.19275 15701 ft 338 kts 334°
2026-05-05 15:59 55.30539 -3.20867 15274 ft 335 kts 334°
2026-05-05 15:59 55.32677 -3.22444 14852 ft 332 kts 334°
2026-05-05 16:00 55.34803 -3.24020 14433 ft 330 kts 334°
2026-05-05 16:00 55.36911 -3.25587 14017 ft 328 kts 334°
2026-05-05 16:00 55.39009 -3.27145 13555 ft 326 kts 334°
2026-05-05 16:00 55.41066 -3.28669 13424 ft 317 kts 334°
2026-05-05 16:01 55.43118 -3.30197 13315 ft 318 kts 334°
2026-05-05 16:01 55.45123 -3.31689 13185 ft 307 kts 334°
2026-05-05 16:01 55.47030 -3.33105 13056 ft 297 kts 334°
2026-05-05 16:01 55.48929 -3.34514 12927 ft 287 kts 334°
2026-05-05 16:02 55.50579 -3.36214 12741 ft 275 kts 319°
2026-05-05 16:02 55.51982 -3.38286 12334 ft 273 kts 317°
2026-05-05 16:02 55.53439 -3.40455 11952 ft 263 kts 317°
2026-05-05 16:02 55.54815 -3.42500 11601 ft 254 kts 317°
2026-05-05 16:03 55.56141 -3.44467 11279 ft 244 kts 317°
2026-05-05 16:03 55.57419 -3.46362 10942 ft 235 kts 317°
2026-05-05 16:03 55.58652 -3.48196 10603 ft 229 kts 317°
2026-05-05 16:03 55.59857 -3.49995 10270 ft 225 kts 317°
2026-05-05 16:04 55.61055 -3.51789 10011 ft 226 kts 317°
2026-05-05 16:04 55.61866 -3.53005 9804 ft 226 kts 317°
2026-05-05 16:04 55.63065 -3.54800 9476 ft 226 kts 318°
2026-05-05 16:04 55.64266 -3.56594 9161 ft 226 kts 318°
2026-05-05 16:05 55.65473 -3.58395 8769 ft 230 kts 318°
2026-05-05 16:05 55.66703 -3.60234 8366 ft 233 kts 318°
2026-05-05 16:05 55.67928 -3.62068 7963 ft 228 kts 318°
2026-05-05 16:05 55.69126 -3.63861 7550 ft 224 kts 318°
2026-05-05 16:06 55.70316 -3.65613 7146 ft 221 kts 319°
2026-05-05 16:06 55.71497 -3.67326 6741 ft 218 kts 320°
2026-05-05 16:06 55.72672 -3.69024 6336 ft 217 kts 320°
2026-05-05 16:06 55.73844 -3.70717 5912 ft 217 kts 320°
2026-05-05 16:07 55.75014 -3.72412 5489 ft 217 kts 320°
2026-05-05 16:07 55.76147 -3.74171 5070 ft 216 kts 316°
2026-05-05 16:07 55.77212 -3.76035 4653 ft 215 kts 315°
2026-05-05 16:07 55.78365 -3.77682 4222 ft 212 kts 338°
2026-05-05 16:08 55.79766 -3.78097 3990 ft 198 kts 10°
2026-05-05 16:08 55.80993 -3.77304 4013 ft 185 kts 35°
2026-05-05 16:08 55.81814 -3.75613 4004 ft 180 kts 56°
2026-05-05 16:08 55.82493 -3.73760 3997 ft 178 kts 58°
2026-05-05 16:09 55.83129 -3.71959 3996 ft 178 kts 58°
2026-05-05 16:09 55.83779 -3.70084 3999 ft 178 kts 58°
2026-05-05 16:09 55.84427 -3.68206 3968 ft 176 kts 58°
2026-05-05 16:09 55.85050 -3.66394 3793 ft 168 kts 59°
2026-05-05 16:10 55.85643 -3.64667 3598 ft 160 kts 59°
2026-05-05 16:10 55.86214 -3.63002 3386 ft 155 kts 59°
2026-05-05 16:10 55.86770 -3.61380 3181 ft 152 kts 59°
2026-05-05 16:10 55.87305 -3.59819 2971 ft 148 kts 59°
2026-05-05 16:11 55.87844 -3.58244 2767 ft 147 kts 60°
2026-05-05 16:11 55.89432 -3.53602 2162 ft 146 kts 60°
2026-05-05 16:12 55.89958 -3.52061 1957 ft 146 kts 60°
2026-05-05 16:12 55.90972 -3.49091 1576 ft 131 kts 60°
2026-05-05 16:13 55.92335 -3.45088 1020 ft 123 kts 61°
2026-05-05 16:13 55.92780 -3.43782 828 ft 123 kts 60°
2026-05-05 16:13 55.93219 -3.42487 658 ft 122 kts 61°
2026-05-05 16:14 55.94100 -3.39901 321 ft 122 kts 60°
2026-05-05 16:14 55.94921 -3.37475 112 ft 95 kts 58°
2026-05-05 16:15 55.95259 -3.36454 109 ft 16 kts 90°
2026-05-05 16:15 55.95181 -3.36338 109 ft 2 kts 147°
2026-05-05 16:16 55.95179 -3.36335 109 ft 0 kts 147°
2026-05-05 16:17 55.95166 -3.36320 109 ft 4 kts 151°
2026-05-05 16:17 55.95138 -3.36320 109 ft 4 kts 197°
2026-05-05 16:18 55.95073 -3.36402 111 ft 10 kts 185°
2026-05-05 16:18 55.95004 -3.36434 108 ft 12 kts 237°
2026-05-05 16:18 55.94918 -3.36591 105 ft 9 kts 165°
2026-05-05 16:19 55.94891 -3.36560 102 ft 2 kts 148°
2026-05-05 16:19 55.94880 -3.36549 101 ft 2 kts 149°
2026-05-05 16:19 55.94878 -3.36546 101 ft 0 kts 148°